sat.trackr.live / text

‹ back to catalog

STARLINK-6257

NORAD 57088 · 2023-088AS

PAYLOAD ACTIVE UNKNOWN

§ Identity

Operator
Country
US
Launch date
2023-06-22
Launch site
AFWTR
Launch vehicle
Mass (kg)
RCS (m²)

Purposes: comms

External: N2YO · Heavens-Above · Gunter

§ Orbital elements

Epoch: 2026-05-25T00:19:54.791904Z

Period
94.27 min
Inclination
43.0038°
Eccentricity
0.0001584
Mean motion
15.27578777 rev/d
Perigee alt
482.0 km
Apogee alt
484.1 km
Semi-major
6,861.2 km
B*
6.1335e-5
RAAN
25.0383°
Arg perigee
262.8809°
Mean anomaly
97.1862°
Rev number
16,217

§ Raw data

STARLINK-62571 57088U 23088AS  26145.01382861  .00001426  00000+0  61335-4 0  99902 57088  43.0038  25.0383 0001584 262.8809  97.1862 15.27578777162178

JSON: /api/v1/satellites/57088 · /tle

For live sub-satellite position, see the globe view (requires WebGL).

§ Visibility from observer

Set your observer location to see the next 7 days of passes ≥ 10°. The values pass through the URL so the page stays shareable.

No JS? Fill the form by hand. The geolocation button needs JavaScript.